sat.trackr.live / text

‹ back to catalog

ZHUQUE-2E DEB

NORAD 69634 · 2026-128J

DEBRIS UNKNOWN UNKNOWN

§ Identity

Operator
Country
PRC
Launch date
2026-06-09
Launch site
JSC
Launch vehicle
Mass (kg)
RCS (m²)

External: N2YO · Heavens-Above · Gunter

§ Orbital elements

Epoch: 2026-07-07T11:42:56.672352Z

Period
89.03 min
Inclination
54.5137°
Eccentricity
0.0028747
Mean motion
16.17421222 rev/d
Perigee alt
207.6 km
Apogee alt
245.5 km
Semi-major
6,604.7 km
B*
3.9749e-3
RAAN
204.7279°
Arg perigee
55.3810°
Mean anomaly
304.9951°
Rev number
428

§ Raw data

ZHUQUE-2E DEB1 69634U 26128J   26188.48815593  .07030403  11686-4  39749-2 0  99922 69634  54.5137 204.7279 0028747  55.3810 304.9951 16.17421222  4289

JSON: /api/v1/satellites/69634 · /tle

For live sub-satellite position, see the globe view (requires WebGL).

§ Visibility from observer

Set your observer location to see the next 7 days of passes ≥ 10°. The values pass through the URL so the page stays shareable.

No JS? Fill the form by hand. The geolocation button needs JavaScript.